Regional Weather Roundup
Issued by NWS

Home | Current Version | Previous Version | Text Only | Print | Product List | Glossary Off
Versions: 1 2 3 4 5 6 7 8 9 10 11 12 13 14 15 16 17 18 19 20 21 22 23 24 25 26 27 28 29 30 31 32 33 34 35 36 37 38 39 40 41 42 43 44 45 46 47 48 49 50

637
ASUS43 KMPX 230310
RWRMN
WEATHER ROUNDUP FOR MINNESOTA
NATIONAL WEATHER SERVICE TWIN CITIES/CHANHASSEN MN
1000 PM CDT SAT JUL 22 2017


NOTE: "FAIR" INDICATES FEW OR NO CLOUDS BELOW 12,000 FEET WITH NO
SIGNIFICANT WEATHER AND/OR OBSTRUCTIONS TO VISIBILITY. N/A MEANS
CURRENT SKY AND/OR WEATHER CONDITIONS ARE NOT AVAILABLE.

MNZ060>063-068>070-230400-
   Twin Cities Metro

CITY           SKY/WX    TMP DP  RH WIND       PRES   REMARKS
TWIN CITIES    PTCLDY    80  60  50 N6        29.84R
ST PAUL        CLEAR     79  63  57 N8        29.84R
CRYSTAL        CLEAR     77  60  55 CALM      29.83R
BLAINE         CLEAR     79  63  57 NW5       29.84R
LAKEVILLE      CLEAR     72  63  73 NW3       29.85R
EDEN PRAIRIE   CLEAR     79  59  50 NW6       29.84R
SOUTH ST PAUL  CLEAR     81  60  48 N8        29.84R
LAKE ELMO      FAIR      75  63  64 NW3       29.86R
$$
MNZ001>005-007-008-013>017-022>024-027-028-230400-
   Northwest Minnesota

CITY           SKY/WX    TMP DP  RH WIND       PRES   REMARKS
BEMIDJI        PTCLDY    65  55  71 NW10      29.86R
HALLOCK        CLOUDY    64  63  94 NW7       29.87R
ROSEAU         CLEAR     63  57  82 W6        29.85R
WARROAD        PTCLDY    61  57  88 W3        29.85R
THIEF RVR FALL CLOUDY    62  60  93 NW9       29.89R
CROOKSTON      MOCLDY    64  61  88 N8        29.89R
FOSSTON        PTCLDY    61  55  82 NW8       29.89R
DETROIT LAKES  CLEAR     68  55  64 NW7       29.90R
MOORHEAD       CLEAR     66  59  77 N3        29.90R
PARK RAPIDS    CLOUDY    66  56  70 W6        29.87R
MAHNOMEN       FAIR      65  57  76 N6        29.88R
$$
MNZ006-009>011-018-025>026-230400-
   North Central Minnesota

CITY           SKY/WX    TMP DP  RH WIND       PRES   REMARKS
BAUDETTE       CLOUDY    63  61  93 NW8       29.82R
FLAG ISLAND    MOCLDY    64  61  88 N8        29.82R
INTL FALLS     CLOUDY    64  60  87 CALM      29.81R
WASKISH        CLEAR     64  61  88 NW12G17   29.84R
BIG FORK       CLOUDY    64  55  72 CALM      29.84R
LONGVILLE      CLOUDY    66  55  68 CALM      29.85R
GRAND RAPIDS   CLOUDY    71  55  56 W6        29.85S
CRANE LAKE     CLOUDY    64  61  88 NE6       29.83R
ORR            CLOUDY    64  55  72 CALM      29.80R
COOK           CLOUDY    66  55  68 W5        29.82R
WALKER         CLOUDY    67  55  65 W5        29.85S
$$
MNZ012-019>021-037-230400-
   Northeast Minnesota

CITY           SKY/WX    TMP DP  RH WIND       PRES   REMARKS
DULUTH         PTCLDY    55  54  96 SE6       29.83S
ELY            PTCLDY    63  61  94 E3        29.81S
HIBBING        MOCLDY    67  55  65 W6        29.82R
EVELETH        CLOUDY    70  47  42 NW5       29.83S
DULUTH HARBOR  MOCLDY    57  55  94 NE5       29.84R
TWO HARBORS    PTCLDY    57  54  88 CALM      29.82R
SILVER BAY     PTCLDY    55  54  94 CALM      29.82S
GRAND MARAIS     N/A     56  53  90 E3        29.82S
G MARAIS ARPRT CLOUDY    55  50  82 N7        29.86S
$$
MNZ029>031-032-039>041-046>048-054>057-064-230400-
   West Central Minnesota

CITY           SKY/WX    TMP DP  RH WIND       PRES   REMARKS
FERGUS FALLS   MOCLDY    70  61  73 N7        29.87R
WHEATON        CLEAR     70  61  73 N3        29.89R
MORRIS         CLEAR     73  61  64 N3        29.86R
ALEXANDRIA     PTCLDY    70  62  76 NW5       29.89R
ELBOW LAKE     MOCLDY    73  62  68 NW7       29.88R
WADENA         CLOUDY    70  57  64 NW6       29.87R
GLENWOOD       CLEAR     72  63  73 CALM      29.88R
APPLETON       CLEAR     73  66  78 CALM      29.85R
BENSON         CLEAR     70  63  78 CALM      29.87R
ORTONVILLE     CLEAR     73  66  78 NE5       29.86R
MADISON        CLEAR     73  68  83 CALM      29.85S
WILLMAR        FAIR      75  64  69 CALM      29.87S
$$
MNZ033>034-036-042>043-049>051-058-059-230400-
   Central Minnesota

CITY           SKY/WX    TMP DP  RH WIND       PRES   REMARKS
ST CLOUD       CLEAR     67  63  87 CALM      29.84S
SAUK CENTRE    MOCLDY    68  61  78 CALM      29.86R
PAYNESVILLE    CLEAR     67  63  84 CALM      29.87R
AITKIN         CLEAR     59  55  88 CALM      29.84R
PINE RIVER     PTCLDY    70  55  60 CALM      29.89R
BRAINERD       MOCLDY    73  53  49 W6        29.85R
STAPLES        CLOUDY    68  57  68 CALM      29.87R
LONG PRAIRIE   FAIR      68  63  83 CALM      29.88R
LITTLE FALLS   CLEAR     64  57  77 CALM      29.86R
LITCHFIELD     CLEAR     73  64  73 CALM      29.87R
BUFFALO        CLEAR     74  60  59 CALM      29.86R
MAPLE LAKE     CLEAR     69  63  80 CALM      29.86R
HUTCHINSON     CLEAR     69  67  95 CALM      29.88R
$$
MNZ037-044-045-052-053-230400-
   East Central Minnesota

CITY           SKY/WX    TMP DP  RH WIND       PRES   REMARKS
PRINCETON      CLEAR     66  61  82 CALM      29.85S
MORA           CLEAR     66  55  68 NW3       29.86R
CAMBRIDGE      CLEAR     72  59  64 CALM      29.83S
RUSH CITY      CLEAR     68  61  76 CALM      29.84R
MOOSE LAKE     PTCLDY    70  54  56 NW3       29.81S
HINCKLEY       FAIR      70  59  68 W5        29.83S
CLOQUET        CLEAR     57  54  88 SE3       29.84R
MCGREGOR       CLEAR     64  55  72 CALM      29.84S
$$
MNZ071>073-080-081-089-090-097-098-230400-
   Southwest Minnesota

CITY           SKY/WX    TMP DP  RH WIND       PRES   REMARKS
MONTEVIDEO     CLEAR     73  64  73 CALM      29.86S
GRANITE FALLS  CLEAR     75  66  73 SE5       29.87S
CANBY          CLEAR     73  64  71 CALM      29.88R
MARSHALL       CLEAR     74  64  71 W3        29.88S
REDWOOD FALLS  CLEAR     78  64  61 CALM      29.86R
OLIVIA         CLEAR     73  66  78 CALM      29.86S
PIPESTONE      CLEAR     73  64  73 CALM      29.92S
WINDOM         CLEAR     73  64  73 W6        29.90S
WORTHINGTON    CLEAR     70  64  81 W7        29.93R
JACKSON        CLEAR     72  64  78 CALM      29.92R
SLAYTON        CLEAR     72  64  76 W3        29.92S
$$
MNZ065>067-074>077-082>085-091>093-230400-
   South Central Minnesota

CITY           SKY/WX    TMP DP  RH WIND       PRES   REMARKS
MANKATO        CLEAR     76  67  73 NW5       29.87R
NEW ULM        CLEAR     75  66  73 CALM      29.87R
ST JAMES       PTCLDY    73  72  94 CALM      29.89R
FAIRMONT       CLEAR     74  70  87 CALM      29.89R
GLENCOE        CLEAR     73  67  82 CALM      29.86R
FARIBAULT      CLEAR     75  64  69 CALM      29.87R
OWATONNA       CLEAR     72  70  94 CALM      29.87R
WASECA         CLEAR     72  70  94 CALM      29.89R
ALBERT LEA     CLEAR     73  70  88 CALM      29.88R
$$
MNZ078>079-086>088-094>096-230400-
   Southeast Minnesota

CITY           SKY/WX    TMP DP  RH WIND       PRES   REMARKS
ROCHESTER      CLEAR     72  71  97 W8        29.87R
RED WING       PTCLDY    75  63  64 N5        29.83R
STANTON        CLEAR     73  67  83 CALM      29.84R
DODGE CENTER   CLEAR     75  66  73 NW6       29.87R
WINONA         PTCLDY    72  70  94 CALM      29.83R
AUSTIN         CLEAR     75  72  88 W3        29.87R
PRESTON        CLEAR     73  68  83 W7        29.87R
$$
ABBREVIATIONS USED IN REMARKS
   TC - TEMPERATURES IN CELSIUS
  WCI - WIND CHILL INDEX
   HX - HEAT INDEX
  VSB - VISIBILITY
$$




USA.gov is the U.S. government's official web portal to all federal, state and local government web resources and services.